Regional Weather Roundup
Issued by NWS

Home | Current Version | Previous Version | Graphics & Text | Print | Product List | Glossary On
Versions: 1 2 3 4 5 6 7 8 9 10 11 12 13 14 15 16 17 18 19 20 21 22 23 24 25 26 27 28 29 30 31 32 33 34 35 36 37 38 39 40 41 42 43 44 45 46 47 48 49 50
000
ASUS44 KMEG 251100
RWRTN
TENNESSEE HOURLY STATE WEATHER ROUNDUP
NATIONAL WEATHER SERVICE MEMPHIS TN
600 AM CDT THU AUG 25 2016

TNZ002-004-019-021-049-052-054-088>092-251200-
WEST TENNESSEE

CITY           SKY/WX    TMP DP  RH WIND       PRES   REMARKS
MEMPHIS INTL   PTCLDY    80  74  81 CALM      30.11R
NWS MEMPHIS      N/A     76 N/A N/A MISG        N/A
JACKSON        CLEAR     74  73  97 CALM      30.12R
DYERSBURG      CLEAR     84  72  65 MISG      30.11
UNION CITY     CLEAR     72  72 100 CALM      30.10S
PARIS          CLEAR     70  70 100 CALM      30.13S
LEXINGTON      CLEAR     72  72 100 CALM      30.13R
$$

TNZ008-025-027-028-033-062-065-066-251200-
NORTH MIDDLE TENNESSEE

CITY           SKY/WX    TMP DP  RH WIND       PRES   REMARKS
NASHVILLE      PTCLDY    74  70  87 CALM      30.15R
CLARKSVILLE    CLEAR     74  72  93 CALM      30.13R
COOKEVILLE     CLEAR     70  70 100 CALM      30.17S
CROSSVILLE     MOCLDY    69  68  96 CALM      30.24R
$$

TNZ061-075-076-078-094-096-097-251200-
SOUTH MIDDLE TENNESSEE

CITY           SKY/WX    TMP DP  RH WIND       PRES   REMARKS
TULLAHOMA      PTCLDY    72  70  94 CALM      30.20R
WINCHESTER     CLEAR     72  70  94 SE5       30.19S
MCMINNVILLE    MOCLDY    70  70 100 CALM      30.19R VSB 1/2
COLUMBIA       CLEAR    N/A N/A N/A CALM      30.14R
SHELBYVILLE    MOCLDY    73  73 100 CALM      30.18R
$$

TNZ017-018-042-046-047-251200-
NORTHEAST TENNESSEE

CITY           SKY/WX    TMP DP  RH WIND       PRES   REMARKS
TRI CITIES     MOCLDY    67  65  93 CALM      30.24R
$$

TNZ012-013-036-069-073-074-251200-
CENTRAL EAST TENNESSEE

CITY           SKY/WX    TMP DP  RH WIND       PRES   REMARKS
KNOXVILLE      PTCLDY    72  69  90 S3        30.20R
OAK RIDGE      MOCLDY    74  70  87 CALM      30.21R
GATLINBURG     CLOUDY    70  70 100 CALM      30.21R
$$

TNZ083-085-099-251200-
SOUTHEAST TENNESSEE

CITY           SKY/WX    TMP DP  RH WIND       PRES   REMARKS
CHATTANOOGA    PTCLDY    73  70  90 CALM      30.19S
$$

SKY/WX REPORTED AS FAIR MEANS FEW OR NO CLOUDS BELOW
12 THOUSAND FEET.





USA.gov is the U.S. government's official web portal to all federal, state and local government web resources and services.